Location: Gilevgi
(36.8751°N, 30.0581°E)
Time: 16:28:05
(UTC+00:00)

Spot 4 Rocket - Pass Details

Date: 11 December 2025
Orbit: 769 x 773 km, 98.8° (Epoch: 16 January)

Event Time Altitude Azimuth Distance (km) Brightness Sun altitude
Rises 16:33:23 0° 166° (SSE) 3,226 7.2 -21.3°
Reaches altitude 10° 16:35:41 10° 166° (SSE) 2,304 6.5 -21.8°
Maximum altitude 16:40:46 87° 254° (WSW) 777 3.9 -22.7°
Drops below altitude 10° 16:45:54 10° 346° (NNW) 2,322 6.5 -23.7°
Sets 16:48:13 0° 347° (NNW) 3,254 7.3 -24.2°
